Weather History for Madera, CA

Change the Weather History Date:

Friday, December 14, 2012

  Actual Average Record
Temperature  
Mean Temperature 40 °F 45 °F  
Max Temperature 50 °F 54 °F 67 °F (1998)
Min Temperature 30 °F 36 °F 28 °F (1999)
Degree Days  
Heating Degree Days 25    
Month to date heating degree days 191  
Since 1 July heating degree days 559  
Cooling Degree Days 0    
Month to date cooling degree days 0  
Year to date cooling degree days 1737  
Moisture  
Dew Point 35 °F    
Average Humidity 83    
Maximum Humidity 100    
Minimum Humidity 66    
Precipitation  
Precipitation T in 0.05 in 0.35 in (2008)
Month to date precipitation 0.93 0.57  
Year to date precipitation 9.33 10.89  
Since 1 July precipitation 3.11 2.89  
Snow  
Snow 0.00 in - - ()
Month to date snowfall 0.0  
Since 1 July snowfall 0.0  
Snow Depth 0.00 in    
Sea Level Pressure  
Sea Level Pressure 29.90 in    
Wind  
Wind Speed 2 mph (ESE)    
Max Wind Speed 7 mph    
Max Gust Speed 12 mph    
Visibility 4 miles    
Events Fog    
T = Trace of Precipitation, MM = Missing Value Source: NWS Daily Summary

Daily Weather History Graph

Daily Weather History Graph

Search for Another Location

Airport:

Trip Planner

Search our weather history database for the weather conditions in past years. The results will help you decide how hot, cold, wet, or windy it might be!

Date:

Astronomy

Dec. 14, 2012 Rise Set
Actual Time 7:06 AM PST 4:44 PM PST
Civil Twilight 6:37 AM PST 5:13 PM PST
Nautical Twilight 6:04 AM PST 5:46 PM PST
Astronomical Twilight 5:32 AM PST 6:17 PM PST
Moon 8:16 AM PST (12/14) 6:41 PM PST (12/14)
Length of Visible Light 10h 36m
Length of Day
9h 38m
Waxing Crescent, 3% of the Moon is Illuminated
Dec 14
Waxing Crescent
Dec 19
First Quarter
Dec 28
Full
Jan 4
Last Quarter
Jan 11
New

Hourly Weather History & Observations

Time (PST) Temp. Windchill Dew Point Humidity Pressure Visibility Wind Dir Wind Speed Gust Speed Precip Events Conditions
12:53 AM 35.1 °F - 33.1 °F 92% 29.86 in 3.0 mi Calm Calm - N/A   Clear
1:53 AM 35.1 °F - 34.0 °F 96% 29.86 in 3.0 mi Calm Calm - N/A   Clear
2:38 AM 33.8 °F - 32.0 °F 93% 29.85 in 2.5 mi Calm Calm - N/A   Clear
2:53 AM 33.1 °F - 32.0 °F 96% 29.86 in 3.0 mi Calm Calm - N/A   Clear
3:49 AM 33.8 °F - 33.8 °F 100% 29.85 in 2.5 mi Calm Calm - N/A   Clear
3:53 AM 33.1 °F - 33.1 °F 100% 29.86 in 1.2 mi Calm Calm - N/A   Clear
4:01 AM 32.0 °F - 30.2 °F 93% 29.85 in 0.5 mi Calm Calm - N/A Fog Fog
4:13 AM 30.2 °F - 30.2 °F 100% 29.85 in 0.2 mi Calm Calm - N/A Fog Light Freezing Fog
4:45 AM 30.2 °F - 30.2 °F 100% 29.85 in 1.2 mi Calm Calm - N/A   Scattered Clouds
4:53 AM 32.0 °F 28.7 °F 30.9 °F 96% 29.86 in 2.5 mi East 3.5 mph - N/A   Partly Cloudy
5:03 AM 32.0 °F - 30.2 °F 93% 29.85 in 1.8 mi Calm Calm - N/A   Clear
5:10 AM 32.0 °F 27.5 °F 30.2 °F 93% 29.85 in 2.0 mi East 4.6 mph - N/A   Clear
5:13 AM 30.2 °F 25.4 °F 30.2 °F 100% 29.85 in 1.0 mi East 4.6 mph - N/A   Mist
5:20 AM 32.0 °F 27.5 °F 30.2 °F 93% 29.86 in 0.2 mi East 4.6 mph - N/A Fog Fog
5:53 AM 30.9 °F 27.5 °F 28.9 °F 92% 29.87 in 0.2 mi East 3.5 mph - N/A Fog Light Freezing Fog
6:53 AM 30.0 °F 26.5 °F 30.0 °F 100% 29.88 in 0.5 mi ESE 3.5 mph - N/A Fog Light Freezing Fog
7:11 AM 30.2 °F 26.7 °F 30.2 °F 100% 29.88 in 1.2 mi SE 3.5 mph - N/A   Scattered Clouds
7:24 AM 30.2 °F 25.4 °F 30.2 °F 100% 29.87 in 2.0 mi ESE 4.6 mph - N/A   Clear
7:32 AM 30.2 °F 25.4 °F 30.2 °F 100% 29.88 in 1.8 mi SE 4.6 mph - N/A   Clear
7:40 AM 30.2 °F 26.7 °F 30.2 °F 100% 29.88 in 2.0 mi ESE 3.5 mph - N/A   Clear
7:53 AM 32.0 °F 28.7 °F 30.9 °F 96% 29.88 in 2.5 mi ESE 3.5 mph - N/A   Clear
8:18 AM 33.8 °F 30.8 °F 32.0 °F 93% 29.89 in 1.8 mi East 3.5 mph - N/A   Partly Cloudy
8:25 AM 33.8 °F 29.6 °F 32.0 °F 93% 29.89 in 0.8 mi East 4.6 mph - N/A   Mostly Cloudy
8:53 AM 35.1 °F - 34.0 °F 96% 29.91 in 0.8 mi Calm Calm - N/A   Overcast
9:53 AM 37.9 °F - 37.9 °F 100% 29.93 in 1.2 mi Calm Calm - N/A   Overcast
10:06 AM 39.2 °F 37.0 °F 39.2 °F 100% 29.92 in 2.5 mi SE 3.5 mph - N/A   Mostly Cloudy
10:17 AM 39.2 °F 37.0 °F 39.2 °F 100% 29.93 in 3.0 mi SSE 3.5 mph - N/A   Partly Cloudy
10:53 AM 44.1 °F 42.5 °F 41.0 °F 89% 29.93 in 5.0 mi ESE 3.5 mph - N/A   Clear
11:53 AM 46.9 °F - 39.9 °F 77% 29.92 in 9.0 mi SSE 3.5 mph - N/A   Clear
12:53 PM 48.0 °F - 39.9 °F 74% 29.90 in 10.0 mi South 3.5 mph - N/A   Scattered Clouds
1:53 PM 50.0 °F - 39.9 °F 68% 29.91 in 10.0 mi South 4.6 mph - N/A   Scattered Clouds
2:53 PM 50.0 °F - 39.0 °F 66% 29.91 in 10.0 mi South 5.8 mph - N/A   Mostly Cloudy
3:53 PM 48.9 °F - 37.9 °F 66% 29.92 in 10.0 mi SE 4.6 mph - N/A   Overcast
4:53 PM 48.9 °F - 37.9 °F 66% 29.95 in 10.0 mi Calm Calm - N/A   Overcast
5:53 PM 48.0 °F - 39.0 °F 71% 29.97 in 9.0 mi Calm Calm - N/A   Overcast
6:53 PM 46.0 °F 44.8 °F 41.0 °F 83% 29.99 in 7.0 mi East 3.5 mph - N/A   Overcast
7:53 PM 45.0 °F 43.5 °F 39.9 °F 82% 29.99 in 7.0 mi East 3.5 mph - N/A   Overcast
8:53 PM 44.1 °F - 39.9 °F 85% 30.00 in 6.0 mi Calm Calm - N/A   Overcast
9:53 PM 44.1 °F - 41.0 °F 89% 30.01 in 6.0 mi Calm Calm - N/A   Overcast
10:53 PM 44.1 °F - 39.9 °F 85% 30.02 in 5.0 mi Calm Calm - N/A   Overcast
11:53 PM 44.1 °F - 41.0 °F 89% 30.03 in 4.0 mi Calm Calm - 0.00 in   Overcast